Location: Big Prairie
(40.6673°N, 82.0952°W)
Time: 03:25:44
(UTC+00:00)

Meteor 1-26 Rocket - Pass Details

Date: 05 July 2022
Orbit: 810 x 924 km, 81.3° (Epoch: 13 August)

Event Time Altitude Azimuth Distance (km) Brightness Sun altitude
Rises 07:21:09 0° 339° (NNW) 3,500 8.0 -21.8°
Reaches altitude 10° 07:23:50 10° 330° (NNW) 2,573 7.1 -21.5°
Maximum altitude 07:28:53 31° 270° (W) 1,549 5.3 -21.1°
Enters shadow 07:29:52 29° 252° (WSW) 1,603 5.2 -21.0°
